Location: Callao
(39.8979°N, 113.7141°W)
Time: 13:06:24
(UTC+00:00)

X-37B - Pass Details

Date: 11 March 2021
Orbit: 380 x 394 km, 45.0° (Epoch: 07 April)

Event Time Altitude Azimuth Distance (km) Brightness Sun altitude
Rises 03:52:31 0° 248° (WSW) 2,267 5.2 -26.4°
Reaches altitude 10° 03:54:35 10° 249° (WSW) 1,417 4.0 -26.8°
Enters shadow 03:55:11 15° 250° (WSW) 1,170 3.5 -26.9°
